Year,Month,Day,Hour,Minute,Value (Times are PST for windspeed in km/hr)
2007,12,05,00,00,4.10
2007,12,05,00,01,7.90
2007,12,05,00,02,6.80
2007,12,05,00,03,4.80
2007,12,05,00,04,9.10
2007,12,05,00,05,11.20
2007,12,05,00,06,10.80
2007,12,05,00,07,10.70
2007,12,05,00,08,8.40
2007,12,05,00,09,2.30
2007,12,05,00,10,6.70
2007,12,05,00,11,9.00
2007,12,05,00,12,9.40
2007,12,05,00,13,7.60
2007,12,05,00,14,6.40
2007,12,05,00,15,7.40
2007,12,05,00,16,8.00
2007,12,05,00,17,9.10
2007,12,05,00,18,9.40
2007,12,05,00,19,11.70
2007,12,05,00,20,13.90
2007,12,05,00,21,8.70
2007,12,05,00,22,13.10
2007,12,05,00,23,12.00
2007,12,05,00,24,6.70
2007,12,05,00,25,1.40
2007,12,05,00,26,2.80
2007,12,05,00,27,2.50
2007,12,05,00,28,3.20
2007,12,05,00,29,0.90
2007,12,05,00,30,2.50
2007,12,05,00,31,6.40
2007,12,05,00,32,7.50
2007,12,05,00,33,3.50
2007,12,05,00,34,2.90
2007,12,05,00,35,1.30
2007,12,05,00,36,1.10
2007,12,05,00,37,0.30
2007,12,05,00,38,1.40
2007,12,05,00,39,0.30
2007,12,05,00,40,0.00
2007,12,05,00,41,0.00
2007,12,05,00,42,0.10
2007,12,05,00,43,4.10
2007,12,05,00,44,3.90
2007,12,05,00,45,3.10
2007,12,05,00,46,6.20
2007,12,05,00,47,4.10
2007,12,05,00,48,1.80
2007,12,05,00,49,10.20
2007,12,05,00,50,5.80
2007,12,05,00,51,6.10
2007,12,05,00,52,6.20
2007,12,05,00,53,9.00
2007,12,05,00,54,9.10
2007,12,05,00,55,6.50
2007,12,05,00,56,6.30
2007,12,05,00,57,6.60
2007,12,05,00,58,7.80
2007,12,05,00,59,8.50
2007,12,05,01,00,6.40
2007,12,05,01,01,14.10
2007,12,05,01,02,11.40
2007,12,05,01,03,7.10
2007,12,05,01,04,10.20
2007,12,05,01,05,9.30
2007,12,05,01,06,8.20
2007,12,05,01,07,10.70
2007,12,05,01,08,15.50
2007,12,05,01,09,12.20
2007,12,05,01,10,9.30
2007,12,05,01,11,9.70
2007,12,05,01,12,9.60
2007,12,05,01,13,6.40
2007,12,05,01,14,7.00
2007,12,05,01,15,10.20
2007,12,05,01,16,8.00
2007,12,05,01,17,6.60
2007,12,05,01,18,8.10
2007,12,05,01,19,9.90
2007,12,05,01,20,13.80
2007,12,05,01,21,9.30
2007,12,05,01,22,6.20
2007,12,05,01,23,11.00
2007,12,05,01,24,8.50
2007,12,05,01,25,10.40
2007,12,05,01,26,8.90
2007,12,05,01,27,11.20
2007,12,05,01,28,10.40
2007,12,05,01,29,11.40
2007,12,05,01,30,11.80
2007,12,05,01,31,5.60
2007,12,05,01,32,7.60
2007,12,05,01,33,7.50
2007,12,05,01,34,5.30
2007,12,05,01,35,6.00
2007,12,05,01,36,3.00
2007,12,05,01,37,5.80
2007,12,05,01,38,9.70
2007,12,05,01,39,1.10
2007,12,05,01,40,3.10
2007,12,05,01,41,6.90
2007,12,05,01,42,8.70
2007,12,05,01,43,6.30
2007,12,05,01,44,4.60
2007,12,05,01,45,2.60
2007,12,05,01,46,2.70
2007,12,05,01,47,4.30
2007,12,05,01,48,4.70
2007,12,05,01,49,4.80
2007,12,05,01,50,6.00
2007,12,05,01,51,0.40
2007,12,05,01,52,2.20
2007,12,05,01,53,5.90
2007,12,05,01,54,5.20
2007,12,05,01,55,3.10
2007,12,05,01,56,3.30
2007,12,05,01,57,0.30
2007,12,05,01,58,1.50
2007,12,05,01,59,0.90
2007,12,05,02,00,1.70
2007,12,05,02,01,2.30
2007,12,05,02,02,5.10
2007,12,05,02,03,5.40
2007,12,05,02,04,1.90
2007,12,05,02,05,0.30
2007,12,05,02,06,0.60
2007,12,05,02,07,0.40
2007,12,05,02,08,1.90
2007,12,05,02,09,0.50
2007,12,05,02,10,1.00
2007,12,05,02,11,0.90
2007,12,05,02,12,0.40
2007,12,05,02,13,2.10
2007,12,05,02,14,2.50
2007,12,05,02,15,0.90
2007,12,05,02,16,0.20
2007,12,05,02,17,1.70
2007,12,05,02,18,1.60
2007,12,05,02,19,3.20
2007,12,05,02,20,4.30
2007,12,05,02,21,4.80
2007,12,05,02,22,2.30
2007,12,05,02,23,0.80
2007,12,05,02,24,1.00
2007,12,05,02,25,3.20
2007,12,05,02,26,3.40
2007,12,05,02,27,6.90
2007,12,05,02,28,5.50
2007,12,05,02,29,1.80
2007,12,05,02,30,4.10
2007,12,05,02,31,6.20
2007,12,05,02,32,2.00
2007,12,05,02,33,0.90
2007,12,05,02,34,2.50
2007,12,05,02,35,2.50
2007,12,05,02,36,3.90
2007,12,05,02,37,3.80
2007,12,05,02,38,1.20
2007,12,05,02,39,2.40
2007,12,05,02,40,4.40
2007,12,05,02,41,4.60
2007,12,05,02,42,6.00
2007,12,05,02,43,4.90
2007,12,05,02,44,3.70
2007,12,05,02,45,3.70
2007,12,05,02,46,3.80
2007,12,05,02,47,5.20
2007,12,05,02,48,5.60
2007,12,05,02,49,4.60
2007,12,05,02,50,2.00
2007,12,05,02,51,2.30
2007,12,05,02,52,5.50
2007,12,05,02,53,3.70
2007,12,05,02,54,4.80
2007,12,05,02,55,6.90
2007,12,05,02,56,4.50
2007,12,05,02,57,2.30
2007,12,05,02,58,1.50
2007,12,05,02,59,5.80
2007,12,05,03,00,6.80
2007,12,05,03,01,5.70
2007,12,05,03,02,1.50
2007,12,05,03,03,2.80
2007,12,05,03,04,2.10
2007,12,05,03,05,2.60
2007,12,05,03,06,5.00
2007,12,05,03,07,0.40
2007,12,05,03,08,4.70
2007,12,05,03,09,6.50
2007,12,05,03,10,3.50
2007,12,05,03,11,1.90
2007,12,05,03,12,0.80
2007,12,05,03,13,1.70
2007,12,05,03,14,5.20
2007,12,05,03,15,7.20
2007,12,05,03,16,4.80
2007,12,05,03,17,9.80
2007,12,05,03,18,9.70
2007,12,05,03,19,3.10
2007,12,05,03,20,4.70
2007,12,05,03,21,6.20
2007,12,05,03,22,3.80
2007,12,05,03,23,6.70
2007,12,05,03,24,5.40
2007,12,05,03,25,9.00
2007,12,05,03,26,5.60
2007,12,05,03,27,1.60
2007,12,05,03,28,3.50
2007,12,05,03,29,3.80
2007,12,05,03,30,8.50
2007,12,05,03,31,5.60
2007,12,05,03,32,7.90
2007,12,05,03,33,9.50
2007,12,05,03,34,9.20
2007,12,05,03,35,7.80
2007,12,05,03,36,7.80
2007,12,05,03,37,4.90
2007,12,05,03,38,6.70
2007,12,05,03,39,6.80
2007,12,05,03,40,4.70
2007,12,05,03,41,8.60
2007,12,05,03,42,5.90
2007,12,05,03,43,2.70
2007,12,05,03,44,4.50
2007,12,05,03,45,2.90
2007,12,05,03,46,10.10
2007,12,05,03,47,5.10
2007,12,05,03,48,1.20
2007,12,05,03,49,4.60
2007,12,05,03,50,5.10
2007,12,05,03,51,6.80
2007,12,05,03,52,11.20
2007,12,05,03,53,9.90
2007,12,05,03,54,9.00
2007,12,05,03,55,10.00
2007,12,05,03,56,11.40
2007,12,05,03,57,7.70
2007,12,05,03,58,6.40
2007,12,05,03,59,8.70
2007,12,05,04,00,11.40
2007,12,05,04,01,8.30
2007,12,05,04,02,9.50
2007,12,05,04,03,11.40
2007,12,05,04,04,6.30
2007,12,05,04,05,4.10
2007,12,05,04,06,11.20
2007,12,05,04,07,8.30
2007,12,05,04,08,7.10
2007,12,05,04,09,9.20
2007,12,05,04,10,7.90
2007,12,05,04,11,6.90
2007,12,05,04,12,14.60
2007,12,05,04,13,7.90
2007,12,05,04,14,4.90
2007,12,05,04,15,10.50
2007,12,05,04,16,9.70
2007,12,05,04,17,10.90
2007,12,05,04,18,13.30
2007,12,05,04,19,9.60
2007,12,05,04,20,5.00
2007,12,05,04,21,7.30
2007,12,05,04,22,7.80
2007,12,05,04,23,8.10
2007,12,05,04,24,9.70
2007,12,05,04,25,10.30
2007,12,05,04,26,9.30
2007,12,05,04,27,6.30
2007,12,05,04,28,4.70
2007,12,05,04,29,4.60
2007,12,05,04,30,4.90
2007,12,05,04,31,3.30
2007,12,05,04,32,9.30
2007,12,05,04,33,7.20
2007,12,05,04,34,5.80
2007,12,05,04,35,6.40
2007,12,05,04,36,7.00
2007,12,05,04,37,9.90
2007,12,05,04,38,5.70
2007,12,05,04,39,2.50
2007,12,05,04,40,2.50
2007,12,05,04,41,4.40
2007,12,05,04,42,6.90
2007,12,05,04,43,10.10
2007,12,05,04,44,6.10
2007,12,05,04,45,6.60
2007,12,05,04,46,3.00
2007,12,05,04,47,9.70
2007,12,05,04,48,9.60
2007,12,05,04,49,7.60
2007,12,05,04,50,10.10
2007,12,05,04,51,5.00
2007,12,05,04,52,1.60
2007,12,05,04,53,7.40
2007,12,05,04,54,6.80
2007,12,05,04,55,7.90
2007,12,05,04,56,5.10
2007,12,05,04,57,10.60
2007,12,05,04,58,7.50
2007,12,05,04,59,4.20
2007,12,05,05,00,4.90
2007,12,05,05,01,5.90
2007,12,05,05,02,4.60
2007,12,05,05,03,4.90
2007,12,05,05,04,8.30
2007,12,05,05,05,7.30
2007,12,05,05,06,7.50
2007,12,05,05,07,5.40
2007,12,05,05,08,9.10
2007,12,05,05,09,6.40
2007,12,05,05,10,9.70
2007,12,05,05,11,8.30
2007,12,05,05,12,9.10
2007,12,05,05,13,8.40
2007,12,05,05,14,9.90
2007,12,05,05,15,11.00
2007,12,05,05,16,5.70
2007,12,05,05,17,4.80
2007,12,05,05,18,7.60
2007,12,05,05,19,5.90
2007,12,05,05,20,4.50
2007,12,05,05,21,4.40
2007,12,05,05,22,5.40
2007,12,05,05,23,7.30
2007,12,05,05,24,9.00
2007,12,05,05,25,8.30
2007,12,05,05,26,9.60
2007,12,05,05,27,7.60
2007,12,05,05,28,8.00
2007,12,05,05,29,9.00
2007,12,05,05,30,8.60
2007,12,05,05,31,8.70
2007,12,05,05,32,10.00
2007,12,05,05,33,7.90
2007,12,05,05,34,7.10
2007,12,05,05,35,4.80
2007,12,05,05,36,3.40
2007,12,05,05,37,4.60
2007,12,05,05,38,11.60
2007,12,05,05,39,6.10
2007,12,05,05,40,6.90
2007,12,05,05,41,6.60
2007,12,05,05,42,5.10
2007,12,05,05,43,7.60
2007,12,05,05,44,5.70
2007,12,05,05,45,4.80
2007,12,05,05,46,6.30
2007,12,05,05,47,9.80
2007,12,05,05,48,7.30
2007,12,05,05,49,8.30
2007,12,05,05,50,7.80
2007,12,05,05,51,3.80
2007,12,05,05,52,7.80
2007,12,05,05,53,4.90
2007,12,05,05,54,4.70
2007,12,05,05,55,2.10
2007,12,05,05,56,10.60
2007,12,05,05,57,10.20
2007,12,05,05,58,5.80
2007,12,05,05,59,9.30
2007,12,05,06,00,4.70
2007,12,05,06,01,11.90
2007,12,05,06,02,3.00
2007,12,05,06,03,4.10
2007,12,05,06,04,5.30
2007,12,05,06,05,2.30
2007,12,05,06,06,7.40
2007,12,05,06,07,2.40
2007,12,05,06,08,3.60
2007,12,05,06,09,6.30
2007,12,05,06,10,8.10
2007,12,05,06,11,11.00
2007,12,05,06,12,3.70
2007,12,05,06,13,7.90
2007,12,05,06,14,10.50
2007,12,05,06,15,2.40
2007,12,05,06,16,4.70
2007,12,05,06,17,9.70
2007,12,05,06,18,7.70
2007,12,05,06,19,4.70
2007,12,05,06,20,8.70
2007,12,05,06,21,11.00
2007,12,05,06,22,8.00
2007,12,05,06,23,6.10
2007,12,05,06,24,7.80
2007,12,05,06,25,7.80
2007,12,05,06,26,5.10
2007,12,05,06,27,2.10
2007,12,05,06,28,3.10
2007,12,05,06,29,8.60
2007,12,05,06,30,5.50
2007,12,05,06,31,6.80
2007,12,05,06,32,2.20
2007,12,05,06,33,1.60
2007,12,05,06,34,0.00
2007,12,05,06,35,0.00
2007,12,05,06,36,0.00
2007,12,05,06,37,0.50
2007,12,05,06,38,0.00
2007,12,05,06,39,2.40
2007,12,05,06,40,4.40
2007,12,05,06,41,1.10
2007,12,05,06,42,0.00
2007,12,05,06,43,1.00
2007,12,05,06,44,1.10
2007,12,05,06,45,2.60
2007,12,05,06,46,3.00
2007,12,05,06,47,3.30
2007,12,05,06,48,1.40
2007,12,05,06,49,1.10
2007,12,05,06,50,1.80
2007,12,05,06,51,3.20
2007,12,05,06,52,1.80
2007,12,05,06,53,0.90
2007,12,05,06,54,2.70
2007,12,05,06,55,2.80
2007,12,05,06,56,4.70
2007,12,05,06,57,5.80
2007,12,05,06,58,2.80
2007,12,05,06,59,3.00
2007,12,05,07,00,1.50
2007,12,05,07,01,3.40
2007,12,05,07,02,3.40
2007,12,05,07,03,3.00
2007,12,05,07,04,3.00
2007,12,05,07,05,2.60
2007,12,05,07,06,1.30
2007,12,05,07,07,2.30
2007,12,05,07,08,4.70
2007,12,05,07,09,3.10
2007,12,05,07,10,2.20
2007,12,05,07,11,2.10
2007,12,05,07,12,2.70
2007,12,05,07,13,1.70
2007,12,05,07,14,1.50
2007,12,05,07,15,1.00
2007,12,05,07,16,1.60
2007,12,05,07,17,1.50
2007,12,05,07,18,2.80
2007,12,05,07,19,3.00
2007,12,05,07,20,3.70
2007,12,05,07,21,0.70
2007,12,05,07,22,0.00
2007,12,05,07,23,0.30
2007,12,05,07,24,2.20
2007,12,05,07,25,3.60
2007,12,05,07,26,3.00
2007,12,05,07,27,1.70
2007,12,05,07,28,0.10
2007,12,05,07,29,0.00
2007,12,05,07,30,0.10
2007,12,05,07,31,0.10
2007,12,05,07,32,0.00
2007,12,05,07,33,0.00
2007,12,05,07,34,0.80
2007,12,05,07,35,1.20
2007,12,05,07,36,2.80
2007,12,05,07,37,0.70
2007,12,05,07,38,1.50
2007,12,05,07,39,2.60
2007,12,05,07,40,4.80
2007,12,05,07,41,3.80
2007,12,05,07,42,2.70
2007,12,05,07,43,2.40
2007,12,05,07,44,3.50
2007,12,05,07,45,4.60
2007,12,05,07,46,3.00
2007,12,05,07,47,2.70
2007,12,05,07,48,2.70
2007,12,05,07,49,1.90
2007,12,05,07,50,2.10
2007,12,05,07,51,2.10
2007,12,05,07,52,1.70
2007,12,05,07,53,5.00
2007,12,05,07,54,4.60
2007,12,05,07,55,7.80
2007,12,05,07,56,8.90
2007,12,05,07,57,6.40
2007,12,05,07,58,5.50
2007,12,05,07,59,9.20
2007,12,05,08,00,2.90
2007,12,05,08,01,4.90
2007,12,05,08,02,4.90
2007,12,05,08,03,3.30
2007,12,05,08,04,1.90
2007,12,05,08,05,7.30
2007,12,05,08,06,5.60
2007,12,05,08,07,4.20
2007,12,05,08,08,4.00
2007,12,05,08,09,4.20
2007,12,05,08,10,11.70
2007,12,05,08,11,8.30
2007,12,05,08,12,3.00
2007,12,05,08,13,5.00
2007,12,05,08,14,3.80
2007,12,05,08,15,5.00
2007,12,05,08,16,3.60
2007,12,05,08,17,3.50
2007,12,05,08,18,4.50
2007,12,05,08,19,7.00
2007,12,05,08,20,9.00
2007,12,05,08,21,6.90
2007,12,05,08,22,7.20
2007,12,05,08,23,5.20
2007,12,05,08,24,3.00
2007,12,05,08,25,2.20
2007,12,05,08,26,5.00
2007,12,05,08,27,3.30
2007,12,05,08,28,2.30
2007,12,05,08,29,1.50
2007,12,05,08,30,1.30
2007,12,05,08,31,1.80
2007,12,05,08,32,0.50
2007,12,05,08,33,1.40
2007,12,05,08,34,0.50
2007,12,05,08,35,0.00
2007,12,05,08,36,0.00
2007,12,05,08,37,0.00
2007,12,05,08,38,2.30
2007,12,05,08,39,1.30
2007,12,05,08,40,0.00
2007,12,05,08,41,0.00
2007,12,05,08,42,1.50
2007,12,05,08,43,0.00
2007,12,05,08,44,0.60
2007,12,05,08,45,2.30
2007,12,05,08,46,2.50
2007,12,05,08,47,1.90
2007,12,05,08,48,0.20
2007,12,05,08,49,0.00
2007,12,05,08,50,0.70
2007,12,05,08,51,2.00
2007,12,05,08,52,2.80
2007,12,05,08,53,1.00
2007,12,05,08,54,1.80
2007,12,05,08,55,2.10
2007,12,05,08,56,3.30
2007,12,05,08,57,2.00
2007,12,05,08,58,2.00
2007,12,05,08,59,0.20
2007,12,05,09,00,0.00
2007,12,05,09,01,0.00
2007,12,05,09,02,0.70
2007,12,05,09,03,1.90
2007,12,05,09,04,3.40
2007,12,05,09,05,3.00
2007,12,05,09,06,2.90
2007,12,05,09,07,2.60
2007,12,05,09,08,2.80
2007,12,05,09,09,2.30
2007,12,05,09,10,0.80
2007,12,05,09,11,0.00
2007,12,05,09,12,1.10
2007,12,05,09,13,3.00
2007,12,05,09,14,4.20
2007,12,05,09,15,4.70
2007,12,05,09,16,3.00
2007,12,05,09,17,2.80
2007,12,05,09,18,3.10
2007,12,05,09,19,2.10
2007,12,05,09,20,3.00
2007,12,05,09,21,2.30
2007,12,05,09,22,1.90
2007,12,05,09,23,2.30
2007,12,05,09,24,2.80
2007,12,05,09,25,1.50
2007,12,05,09,26,2.50
2007,12,05,09,27,3.00
2007,12,05,09,28,3.00
2007,12,05,09,29,2.40
2007,12,05,09,30,1.70
2007,12,05,09,31,1.60
2007,12,05,09,32,1.10
2007,12,05,09,33,0.60
2007,12,05,09,34,0.00
2007,12,05,09,35,0.00
2007,12,05,09,36,0.00
2007,12,05,09,37,0.00
2007,12,05,09,38,0.00
2007,12,05,09,39,1.30
2007,12,05,09,40,3.00
2007,12,05,09,41,2.40
2007,12,05,09,42,2.20
2007,12,05,09,43,0.80
2007,12,05,09,44,0.00
2007,12,05,09,45,0.00
2007,12,05,09,46,0.00
2007,12,05,09,47,0.00
2007,12,05,09,48,0.00
2007,12,05,09,49,0.00
2007,12,05,09,50,1.50
2007,12,05,09,51,0.60
2007,12,05,09,52,1.10
2007,12,05,09,53,0.30
2007,12,05,09,54,0.50
2007,12,05,09,55,1.50
2007,12,05,09,56,0.10
2007,12,05,09,57,0.00
2007,12,05,09,58,0.00
2007,12,05,09,59,0.00
2007,12,05,10,00,0.00
2007,12,05,10,01,0.30
2007,12,05,10,02,0.00
2007,12,05,10,03,0.00
2007,12,05,10,04,0.00
2007,12,05,10,05,0.00
2007,12,05,10,06,0.00
2007,12,05,10,07,0.00
2007,12,05,10,08,0.00
2007,12,05,10,09,0.00
2007,12,05,10,10,0.00
2007,12,05,10,11,0.00
2007,12,05,10,12,0.00
2007,12,05,10,13,0.00
2007,12,05,10,14,0.00
2007,12,05,10,15,0.00
2007,12,05,10,16,0.00
2007,12,05,10,17,1.50
2007,12,05,10,18,1.90
2007,12,05,10,19,2.20
2007,12,05,10,20,1.80
2007,12,05,10,21,1.80
2007,12,05,10,22,1.20
2007,12,05,10,23,0.40
2007,12,05,10,24,1.00
2007,12,05,10,25,0.30
2007,12,05,10,26,0.10
2007,12,05,10,27,0.00
2007,12,05,10,28,0.00
2007,12,05,10,29,0.00
2007,12,05,10,30,0.00
2007,12,05,10,31,0.00
2007,12,05,10,32,0.00
2007,12,05,10,33,0.00
2007,12,05,10,34,0.00
2007,12,05,10,35,0.80
2007,12,05,10,36,0.40
2007,12,05,10,37,0.20
2007,12,05,10,38,0.70
2007,12,05,10,39,1.80
2007,12,05,10,40,1.90
2007,12,05,10,41,1.90
2007,12,05,10,42,1.70
2007,12,05,10,43,1.70
2007,12,05,10,44,0.50
2007,12,05,10,45,0.90
2007,12,05,10,46,1.10
2007,12,05,10,47,1.10
2007,12,05,10,48,0.30
2007,12,05,10,49,1.60
2007,12,05,10,50,3.00
2007,12,05,10,51,4.20
2007,12,05,10,52,2.90
2007,12,05,10,53,2.50
2007,12,05,10,54,5.10
2007,12,05,10,55,1.80
2007,12,05,10,56,1.80
2007,12,05,10,57,1.30
2007,12,05,10,58,2.80
2007,12,05,10,59,1.90
2007,12,05,11,00,6.10
2007,12,05,11,01,5.40
2007,12,05,11,02,4.70
2007,12,05,11,03,7.30
2007,12,05,11,04,4.90
2007,12,05,11,05,4.60
2007,12,05,11,06,5.50
2007,12,05,11,07,2.40
2007,12,05,11,08,3.20
2007,12,05,11,09,0.40
2007,12,05,11,10,1.00
2007,12,05,11,11,0.80
2007,12,05,11,12,1.90
2007,12,05,11,13,5.20
2007,12,05,11,14,1.50
2007,12,05,11,15,0.80
2007,12,05,11,16,8.50
2007,12,05,11,17,4.90
2007,12,05,11,18,6.40
2007,12,05,11,19,2.40
2007,12,05,11,20,3.70
2007,12,05,11,21,3.20
2007,12,05,11,22,0.10
2007,12,05,11,23,2.70
2007,12,05,11,24,9.60
2007,12,05,11,25,7.70
2007,12,05,11,26,3.40
2007,12,05,11,27,5.50
2007,12,05,11,28,3.50
2007,12,05,11,29,5.30
2007,12,05,11,30,6.70
2007,12,05,11,31,7.00
2007,12,05,11,32,4.00
2007,12,05,11,33,8.00
2007,12,05,11,34,5.40
2007,12,05,11,35,5.60
2007,12,05,11,36,3.70
2007,12,05,11,37,0.50
2007,12,05,11,38,1.30
2007,12,05,11,39,2.70
2007,12,05,11,40,4.20
2007,12,05,11,41,4.20
2007,12,05,11,42,5.20
2007,12,05,11,43,2.60
2007,12,05,11,44,3.90
2007,12,05,11,45,4.10
2007,12,05,11,46,8.70
2007,12,05,11,47,8.30
2007,12,05,11,48,6.90
2007,12,05,11,49,2.50
2007,12,05,11,50,1.90
2007,12,05,11,51,0.90
2007,12,05,11,52,1.00
2007,12,05,11,53,6.40
2007,12,05,11,54,6.10
2007,12,05,11,55,6.70
2007,12,05,11,56,6.80
2007,12,05,11,57,6.40
2007,12,05,11,58,5.30
2007,12,05,11,59,6.00
2007,12,05,12,00,7.60
2007,12,05,12,01,7.60
2007,12,05,12,02,8.10
2007,12,05,12,03,5.80
2007,12,05,12,04,7.50
2007,12,05,12,05,7.00
2007,12,05,12,06,5.10
2007,12,05,12,07,3.40
2007,12,05,12,08,6.30
2007,12,05,12,09,6.40
2007,12,05,12,10,8.00
2007,12,05,12,11,4.70
2007,12,05,12,12,5.40
2007,12,05,12,13,4.60
2007,12,05,12,14,4.90
2007,12,05,12,15,5.20
2007,12,05,12,16,3.10
2007,12,05,12,17,2.40
2007,12,05,12,18,3.80
2007,12,05,12,19,5.60
2007,12,05,12,20,3.80
2007,12,05,12,21,1.30
2007,12,05,12,22,1.50
2007,12,05,12,23,5.20
2007,12,05,12,24,4.70
2007,12,05,12,25,3.90
2007,12,05,12,26,6.00
2007,12,05,12,27,4.40
2007,12,05,12,28,1.90
2007,12,05,12,29,2.70
2007,12,05,12,30,1.40
2007,12,05,12,31,4.70
2007,12,05,12,32,4.10
2007,12,05,12,33,1.00
2007,12,05,12,34,3.80
2007,12,05,12,35,4.30
2007,12,05,12,36,2.40
2007,12,05,12,37,3.20
2007,12,05,12,38,2.20
2007,12,05,12,39,3.00
2007,12,05,12,40,2.60
2007,12,05,12,41,1.90
2007,12,05,12,42,0.20
2007,12,05,12,43,0.40
2007,12,05,12,44,1.40
2007,12,05,12,45,2.70
2007,12,05,12,46,2.20
2007,12,05,12,47,1.90
2007,12,05,12,48,1.50
2007,12,05,12,49,2.90
2007,12,05,12,50,0.90
2007,12,05,12,51,0.70
2007,12,05,12,52,2.80
2007,12,05,12,53,0.90
2007,12,05,12,54,2.40
2007,12,05,12,55,3.30
2007,12,05,12,56,3.10
2007,12,05,12,57,3.20
2007,12,05,12,58,4.60
2007,12,05,12,59,4.20
2007,12,05,13,00,6.30
2007,12,05,13,01,6.20
2007,12,05,13,02,6.00
2007,12,05,13,03,6.20
2007,12,05,13,04,2.90
2007,12,05,13,05,2.70
2007,12,05,13,06,2.20
2007,12,05,13,07,2.00
2007,12,05,13,08,2.70
2007,12,05,13,09,4.80
2007,12,05,13,10,2.90
2007,12,05,13,11,2.10
2007,12,05,13,12,1.50
2007,12,05,13,13,0.30
2007,12,05,13,14,0.90
2007,12,05,13,15,2.80
2007,12,05,13,16,4.20
2007,12,05,13,17,3.20
2007,12,05,13,18,2.40
2007,12,05,13,19,3.10
2007,12,05,13,20,5.50
2007,12,05,13,21,2.30
2007,12,05,13,22,3.20
2007,12,05,13,23,5.10
2007,12,05,13,24,1.50
2007,12,05,13,25,1.10
2007,12,05,13,26,2.00
2007,12,05,13,27,3.60
2007,12,05,13,28,2.30
2007,12,05,13,29,7.10
2007,12,05,13,30,6.20
2007,12,05,13,31,5.50
2007,12,05,13,32,3.50
2007,12,05,13,33,3.00
2007,12,05,13,34,3.70
2007,12,05,13,35,2.50
2007,12,05,13,36,7.30
2007,12,05,13,37,3.70
2007,12,05,13,38,4.00
2007,12,05,13,39,3.20
2007,12,05,13,40,1.50
2007,12,05,13,41,1.20
2007,12,05,13,42,4.90
2007,12,05,13,43,1.40
2007,12,05,13,44,2.60
2007,12,05,13,45,1.00
2007,12,05,13,46,0.90
2007,12,05,13,47,1.80
2007,12,05,13,48,0.60
2007,12,05,13,49,2.00
2007,12,05,13,50,3.80
2007,12,05,13,51,2.70
2007,12,05,13,52,1.90
2007,12,05,13,53,0.80
2007,12,05,13,54,1.00
2007,12,05,13,55,0.10
2007,12,05,13,56,0.10
2007,12,05,13,57,0.00
2007,12,05,13,58,0.80
2007,12,05,13,59,1.30
2007,12,05,14,00,0.60
2007,12,05,14,01,1.30
2007,12,05,14,02,2.40
2007,12,05,14,03,2.00
2007,12,05,14,04,1.00
2007,12,05,14,05,1.40
2007,12,05,14,06,2.10
2007,12,05,14,07,4.50
2007,12,05,14,08,2.20
2007,12,05,14,09,1.10
2007,12,05,14,10,1.50
2007,12,05,14,11,0.20
2007,12,05,14,12,1.10
2007,12,05,14,13,3.20
2007,12,05,14,14,2.20
2007,12,05,14,15,1.50
2007,12,05,14,16,3.00
2007,12,05,14,17,6.00
2007,12,05,14,18,7.00
2007,12,05,14,19,7.30
2007,12,05,14,20,7.80
2007,12,05,14,21,8.10
2007,12,05,14,22,6.20
2007,12,05,14,23,7.90
2007,12,05,14,24,3.60
2007,12,05,14,25,4.70
2007,12,05,14,26,8.00
2007,12,05,14,27,5.50
2007,12,05,14,28,7.70
2007,12,05,14,29,6.90
2007,12,05,14,30,6.30
2007,12,05,14,31,8.00
2007,12,05,14,32,5.40
2007,12,05,14,33,7.00
2007,12,05,14,34,8.80
2007,12,05,14,35,5.20
2007,12,05,14,36,4.90
2007,12,05,14,37,4.60
2007,12,05,14,38,6.60
2007,12,05,14,39,7.80
2007,12,05,14,40,7.60
2007,12,05,14,41,8.20
2007,12,05,14,42,5.40
2007,12,05,14,43,5.80
2007,12,05,14,44,7.60
2007,12,05,14,45,4.20
2007,12,05,14,46,5.80
2007,12,05,14,47,5.70
2007,12,05,14,48,2.60
2007,12,05,14,49,2.30
2007,12,05,14,50,2.70
2007,12,05,14,51,2.90
2007,12,05,14,52,5.70
2007,12,05,14,53,2.50
2007,12,05,14,54,3.10
2007,12,05,14,55,3.60
2007,12,05,14,56,3.10
2007,12,05,14,57,3.60
2007,12,05,14,58,3.70
2007,12,05,14,59,4.50
2007,12,05,15,00,2.50
2007,12,05,15,01,5.00
2007,12,05,15,02,7.90
2007,12,05,15,03,4.10
2007,12,05,15,04,5.50
2007,12,05,15,05,4.00
2007,12,05,15,06,3.10
2007,12,05,15,07,1.30
2007,12,05,15,08,1.10
2007,12,05,15,09,0.30
2007,12,05,15,10,1.30
2007,12,05,15,11,2.20
2007,12,05,15,12,1.40
2007,12,05,15,13,1.60
2007,12,05,15,14,3.00
2007,12,05,15,15,3.60
2007,12,05,15,16,7.20
2007,12,05,15,17,6.00
2007,12,05,15,18,6.50
2007,12,05,15,19,4.90
2007,12,05,15,20,2.30
2007,12,05,15,21,3.60
2007,12,05,15,22,4.60
2007,12,05,15,23,2.60
2007,12,05,15,24,2.70
2007,12,05,15,25,2.40
2007,12,05,15,26,2.70
2007,12,05,15,27,0.50
2007,12,05,15,28,0.80
2007,12,05,15,29,1.20
2007,12,05,15,30,2.50
2007,12,05,15,31,1.70
2007,12,05,15,32,3.10
2007,12,05,15,33,3.10
2007,12,05,15,34,2.20
2007,12,05,15,35,3.00
2007,12,05,15,36,1.90
2007,12,05,15,37,3.20
2007,12,05,15,38,4.60
2007,12,05,15,39,3.30
2007,12,05,15,40,3.90
2007,12,05,15,41,3.80
2007,12,05,15,42,4.60
2007,12,05,15,43,5.30
2007,12,05,15,44,3.60
2007,12,05,15,45,3.30
2007,12,05,15,46,2.50
2007,12,05,15,47,1.50
2007,12,05,15,48,1.70
2007,12,05,15,49,3.40
2007,12,05,15,50,1.60
2007,12,05,15,51,2.70
2007,12,05,15,52,2.20
2007,12,05,15,53,1.40
2007,12,05,15,54,0.70
2007,12,05,15,55,0.00
2007,12,05,15,56,0.00
2007,12,05,15,57,1.60
2007,12,05,15,58,2.00
2007,12,05,15,59,1.70
2007,12,05,16,00,2.50
2007,12,05,16,01,1.90
2007,12,05,16,02,2.90
2007,12,05,16,03,1.70
2007,12,05,16,04,0.80
2007,12,05,16,05,1.70
2007,12,05,16,06,1.60
2007,12,05,16,07,0.60
2007,12,05,16,08,0.70
2007,12,05,16,09,0.00
2007,12,05,16,10,0.30
2007,12,05,16,11,0.00
2007,12,05,16,12,0.00
2007,12,05,16,13,0.30
2007,12,05,16,14,0.20
2007,12,05,16,15,0.30
2007,12,05,16,16,0.30
2007,12,05,16,17,0.20
2007,12,05,16,18,0.40
2007,12,05,16,19,0.00
2007,12,05,16,20,0.20
2007,12,05,16,21,0.00
2007,12,05,16,22,0.00
2007,12,05,16,23,0.20
2007,12,05,16,24,0.10
2007,12,05,16,25,0.00
2007,12,05,16,26,0.20
2007,12,05,16,27,0.40
2007,12,05,16,28,0.00
2007,12,05,16,29,0.20
2007,12,05,16,30,0.20
2007,12,05,16,31,0.00
2007,12,05,16,32,0.00
2007,12,05,16,33,0.00
2007,12,05,16,34,0.00
2007,12,05,16,35,0.00
2007,12,05,16,36,0.00
2007,12,05,16,37,0.00
2007,12,05,16,38,0.00
2007,12,05,16,39,0.00
2007,12,05,16,40,0.00
2007,12,05,16,41,0.00
2007,12,05,16,42,0.00
2007,12,05,16,43,0.00
2007,12,05,16,44,0.00
2007,12,05,16,45,0.00
2007,12,05,16,46,0.00
2007,12,05,16,47,0.00
2007,12,05,16,48,0.00
2007,12,05,16,49,0.00
2007,12,05,16,50,0.00
2007,12,05,16,51,0.30
2007,12,05,16,52,2.40
2007,12,05,16,53,1.30
2007,12,05,16,54,1.00
2007,12,05,16,55,1.00
2007,12,05,16,56,1.70
2007,12,05,16,57,1.40
2007,12,05,16,58,1.60
2007,12,05,16,59,1.40
2007,12,05,17,00,1.10
2007,12,05,17,01,1.70
2007,12,05,17,02,1.70
2007,12,05,17,03,1.90
2007,12,05,17,04,2.30
2007,12,05,17,05,2.10
2007,12,05,17,06,1.80
2007,12,05,17,07,1.80
2007,12,05,17,08,1.50
2007,12,05,17,09,1.70
2007,12,05,17,10,2.00
2007,12,05,17,11,2.20
2007,12,05,17,12,1.80
2007,12,05,17,13,1.90
2007,12,05,17,14,1.60
2007,12,05,17,15,2.00
2007,12,05,17,16,2.00
2007,12,05,17,17,0.70
2007,12,05,17,18,1.40
2007,12,05,17,19,1.90
2007,12,05,17,20,1.60
2007,12,05,17,21,1.20
2007,12,05,17,22,1.40
2007,12,05,17,23,1.60
2007,12,05,17,24,1.40
2007,12,05,17,25,1.50
2007,12,05,17,26,1.80
2007,12,05,17,27,2.00
2007,12,05,17,28,1.80
2007,12,05,17,29,2.10
2007,12,05,17,30,2.20
2007,12,05,17,31,2.60
2007,12,05,17,32,2.10
2007,12,05,17,33,3.20
2007,12,05,17,34,3.20
2007,12,05,17,35,3.60
2007,12,05,17,36,3.30
2007,12,05,17,37,2.00
2007,12,05,17,38,2.20
2007,12,05,17,39,1.30
2007,12,05,17,40,1.10
2007,12,05,17,41,0.00
2007,12,05,17,42,0.30
2007,12,05,17,43,0.90
2007,12,05,17,44,2.20
2007,12,05,17,45,1.80
2007,12,05,17,46,0.20
2007,12,05,17,47,0.00
2007,12,05,17,48,0.00
2007,12,05,17,49,0.00
2007,12,05,17,50,0.00
2007,12,05,17,51,0.20
2007,12,05,17,52,0.00
2007,12,05,17,53,0.00
2007,12,05,17,54,0.00
2007,12,05,17,55,0.00
2007,12,05,17,56,0.60
2007,12,05,17,57,0.20
2007,12,05,17,58,1.00
2007,12,05,17,59,1.40
2007,12,05,18,00,1.60
2007,12,05,18,01,0.50
2007,12,05,18,02,0.30
2007,12,05,18,03,0.00
2007,12,05,18,04,0.00